TOMSAT EAGLESCOUT (43861 NORAD) Tracking and Keplerian Element Data

This shows tracking and keplerian element data for the satellite.

Feedback or suggestion? Click here.




ElementValue
Catalog43861
NameTOMSAT EAGLESCOUT
Epoch Orbit434
Epoch Day13.9180213
Epoch Year2019
RAAN159.4445
Inclination85.0433
Eccentricity0.0017098
Argument of Perigee174.018
Mean Anonmoly186.1516
Mean Motion15.21146185
Decay Rate4.1E-07
L11 43861U 18104N 19013.91802130 .00000041 00000-0 00000+0 0 9998
L22 43861 85.0433 159.4445 0017098 174.0180 186.1516 15.21146185 4348

Live tracking and technical data element details for TOMSAT EAGLESCOUT (NORAD 43861). TOMSAT EAGLESCOUT can be tracked NOW for your location showing map with azimuth and elevation plus other details from your city location.

Track the satellite on the map from your city or location and see movement details for azimuth, elevation, latitude, longitude, range, height, and movement on the map or in text.







IsCatalogInMostPopularTable: catalog: 43861, numindb: 72
Update: records affected: 1



GetName: 43861 TOMSAT EAGLESCOUT

Hit Count: updated at: Thu, 23 May 2019 14:47:27 GMT